Regional Weather Roundup
Issued by NWS Bismarck, ND

Home | Current Version | Previous Version | Text Only | Print | Product List | Glossary On
Versions: 1 2 3 4 5 6 7 8 9 10 11 12 13 14 15 16 17 18 19 20 21 22 23 24 25 26 27 28 29 30 31 32 33 34 35 36 37 38 39 40 41 42 43 44 45 46 47 48 49 50
000
ASUS43 KBIS 191520
RWRBIS

NWR BROADCAST TEXT
NATIONAL WEATHER SERVICE BISMARCK ND
900 AM CST FRI DEC 19 2014

NOTE: "FAIR" INDICATES FEW OR NO CLOUDS BELOW 12,000 FEET WITH NO
SIGNIFICANT WEATHER AND/OR OBSTRUCTIONS TO VISIBILITY.


CITY           SKY/WX    TMP DP  RH WIND       PRES   REMARKS
WILLISTON      FOG       20  19  96 CALM      29.94R VSB 1/4
MINOT          CLOUDY    28  26  92 CALM      29.93R FOG
MINOT AFB      FRZ DRZL  26  26 100 NE2       29.93S FOG
BISMARCK       MOCLDY    22  21  96 SE5       29.96S WCI  16
DICKINSON      MOCLDY    30  23  75 W8        29.90S
GARRISON         N/A     19  17  92 N5        29.93R WCI  12
HETTINGER ARPT PTCLDY    24  20  84 W7        29.94S WCI  16
JAMESTOWN      CLOUDY    25  24  96 S12       29.99S FOG     WCI  14
BEACH          FAIR      27  25  93 SW9       29.93R WCI  17
CARRINGTON     CLOUDY    25  25 100 MISG      29.98R FOG
CROSBY         FOG       21  21 100 SW6       29.94R VSB 3/4 WCI  14
HARVEY         CLOUDY    25  25 100 SW7       29.96R FOG     WCI  17
HAZEN          FAIR      19  18  93 S3        29.95S
LINTON         FAIR      23  23 100 SE8       29.96S WCI  14
MANDAN         PTSUNNY   23  21  93 S6        29.95R WCI  16
OAKES            N/A     27  27 100 S12       30.04S FOG     WCI  16
RUGBY          FOG       27  27 100 SW5       29.95S VSB 1/2
STANLEY        FOG       23  23 100 W6        29.91R VSB 1/4 WCI  16
TIOGA          FOG       23  23 100 W6        29.94R VSB 1/4 WCI  16
WATFORD CITY   FAIR      19  19 100 SW5       29.91R WCI  13
$$

CITY           SKY/WX    TMP DP  RH WIND       PRES   REMARKS
GRAND FORKS    CLOUDY    24  23  96 S9        30.07S FOG     WCI  14
GRAND FORKS AF FRZ DRZL  23  23 100 S9        30.06S FOG     WCI  13
DEVILS LAKE    CLOUDY    27  19  74 S7        29.96S VSB 1   WCI  19
FARGO          CLOUDY    26  23  88 S14       30.08F FOG     WCI  14
CANDO          FOG       27  27 100 S6        29.97S VSB 1/2 WCI  20
CAVALIER       FOG       23  23 100 SE7       30.05S VSB 1   WCI  15
GWINNER        CLOUDY    30  30 100 MISG      30.06S
LANGDON        CLOUDY    25  23  93 N5        29.98R FOG     WCI  19
ROLLA          FOG       23  23 100 CALM      29.95S VSB 1
WALHALLA         N/A     23  23 100 SE5       30.04S FOG     WCI  17
$$

CITY           SKY/WX    TMP DP  RH WIND       PRES   REMARKS
ABERDEEN       CLOUDY    28  25  88 S16       30.06S FOG     WCI  16
MOBRIDGE       MOCLDY    21  18  88 SE8       29.96F FOG     WCI  11
BUFFALO          N/A     29  20  69 W7        29.88S
RAPID CITY     PTCLDY    23  16  74 CALM      29.97F
GLASGOW        FOG       20  17  88 CALM      29.91R VSB 3/4
SIDNEY         CLEAR     21  19  93 CALM      29.95S
WOLF POINT     PTCLDY    15  11  83 CALM      29.93S
GLENDIVE       MOCLDY    25  21  86 S3        29.93S
MILES CITY     CLOUDY    24  20  84 SE8       29.95S WCI  15
BAKER          PTCLDY    25  21  85 CALM      29.94S
$$

CITY           SKY/WX    TMP DP  RH WIND       PRES   REMARKS
BILLINGS       PTCLDY    29  17  61 SW16      29.93F WCI  17
GREAT FALLS    MOCLDY    34  26  72 S10       29.86S
REGINA         FOG       18  18 100 SW3       29.92R VSB 1
ESTEVAN        FOG       23  21  93 SW5       29.92  VSB 1/2 WCI  17
$$




USA.gov is the U.S. government's official web portal to all federal, state and local government web resources and services.